• Processing (Info)

  • MPEC 2013-T91 : 2013 TN127

    The following Minor Planet Electronic Circular may be linked-to from your own Web pages, but must not otherwise be redistributed electronically.

    A form allowing access to any MPEC is at the bottom of this page.


    Read MPEC 2013-T90 Read MPEC 2013-T92


    M.P.E.C. 2013-T91                                Issued 2013 Oct. 12, 01:28 UT
    
         The Minor Planet Electronic Circulars contain information on unusual
             minor planets and routine data on comets.  They are published
       on behalf of Commission 20 of the International Astronomical Union by the
              Minor Planet Center, Smithsonian Astrophysical Observatory,
                              Cambridge, MA 02138, U.S.A.
    
                 Prepared using the Tamkin Foundation Computer Network
    
                                  MPC@CFA.HARVARD.EDU
                URL http://www.minorplanetcenter.net/    ISSN 1523-6714
    
                                      2013 TN127
    
    Observations:
         K13TC7N* C2013 10 11.21618 23 45 03.37 +11 49 13.7          19.1 VqET091703
         K13TC7N  C2013 10 11.22118 23 45 03.84 +11 46 47.2          18.5 VqET091703
         K13TC7N  C2013 10 11.22620 23 45 04.17 +11 44 21.0          19.4 VqET091703
         K13TC7N  C2013 10 11.23125 23 45 04.59 +11 41 53.2          18.9 VqET091703
         K13TC7N  C2013 10 11.26081 23 45 06.72 +11 27 27.6          20.2 VqET091703
         K13TC7N  C2013 10 11.26124 23 45 06.77 +11 27 15.6          19.4 VqET091703
         K13TC7N  C2013 10 11.26168 23 45 06.78 +11 27 03.2          19.0 VqET091703
         K13TC7N  C2013 10 11.26212 23 45 06.80 +11 26 49.7          20.2 VqET091703
         K13TC7N  C2013 10 11.27710 23 45 07.91 +11 19 30.9          19.6 RcET091854
         K13TC7N  C2013 10 11.27905 23 45 08.17 +11 18 33.6          19.6 RcET091854
         K13TC7N  C2013 10 11.28099 23 45 08.26 +11 17 36.7          19.4 RcET091854
         K13TC7N KC2013 10 11.30485623 45 05.43 +11 05 13.3          19.3  rET091H21
         K13TC7N KC2013 10 11.30913923 45 05.92 +11 03 07.4          19.1  rET091H21
         K13TC7N KC2013 10 11.31393123 45 06.49 +11 00 46.1          19.2  rET091H21
         K13TC7N  C2013 10 11.35991 23 45 15.08 +10 38 59.4          19.7 VqET091703
         K13TC7N  C2013 10 11.36035 23 45 15.10 +10 38 47.8          19.8 VqET091703
         K13TC7N  C2013 10 11.36081 23 45 15.20 +10 38 32.3          19.4 VqET091703
         K13TC7N  C2013 10 11.36124 23 45 15.20 +10 38 22.5          20.0 VqET091703
         K13TC7N 5C2013 10 11.61184 23 46 03.23 +08 42 04.4          19.7 RtET091E10
         K13TC7N 5C2013 10 11.61318 23 46 03.34 +08 41 23.7          20.1 RtET091E10
         K13TC7N KC2013 10 11.88028423 47 05.98 +06 26 32.1          19.3 VuET091I93
         K13TC7N KC2013 10 11.89342723 47 07.22 +06 20 14.0          19.7 VuET091I93
         K13TC7N KC2013 10 11.90920423 47 08.63 +06 12 40.9          19.6 VuET091I93
    
    Observer details:
    703 Catalina Sky Survey.  Observer R. E. Hill.  Measurers A. Boattini,
        E. J. Christensen, A. R. Gibbs, A. D. Grauer, R. E. Hill, J. A. Johnson,
        R. A. Kowalski, S. M. Larson, F. C. Shelly.  0.68-m Schmidt + CCD.
    854 Sabino Canyon Observatory, Tucson.  Observer J. E. McGaha.  0.36-m f/10.0
        Schmidt-Cassegrain + CCD.
    E10 Siding Spring-Faulkes Telescope South.  Observer R. Miles.  2.0-m f/10.0
        Ritchey-Chretien + CCD.
    H21 Astronomical Research Observatory, Westfield.  Observer R. Holmes.
        Measurers S. Foglia, L. Buzzi, H. Devore, A. Kostin, T. Linder,
        T. Lister. T.  0.61-m f/4.0 astrograph + CCD.
    I93 St Pardon de Conques.  Observer F. Losse.  0.40-m f/3.7 reflector + CCD.
    
    Orbital elements:
    2013 TN127                                               Earth MOID = 0.0272 AU
    Epoch 2013 Nov. 4.0 TT = JDT 2456600.5                  MPC
    M 201.15583              (2000.0)            P               Q
    n   1.09074326     Peri.    2.49024     -0.93185021     +0.35500618
    a   0.9346615      Node   198.84516     -0.33678666     -0.92317179
    e   0.0972528      Incl.   13.42700     -0.13501827     -0.14739217
    P   0.90           H   26.1           G   0.15           U   7
    Residuals in seconds of arc
    131011 703  0.9-  0.3+    131011 854  0.7-  0.6-    131011 703  0.1-  0.7-
    131011 703  0.5+  0.1-    131011 854  1.0+  0.8-    131011 703 (0.7-  2.1+)
    131011 703  0.1-  0.4+    131011 854  0.1+  0.8-    131011 E10  0.0   0.7+
    131011 703  0.6+  0.2+    131011 H21  0.1+  0.4+    131011 E10  0.1-  0.9-
    131011 703  0.1+  0.5-    131011 H21  0.1+  0.5+    131011 I93  0.3-  0.3+
    131011 703  0.3+  0.1+    131011 H21  0.3+  0.2+    131011 I93  0.3+  0.2-
    131011 703  0.0   0.5+    131011 703  0.5-  0.1-    131011 I93  0.3+  0.0
    131011 703  0.2-  0.1-    131011 703  0.9-  1.2+
    
    Ephemeris:
    2013 TN127               a,e,i = 0.93, 0.10, 13                  q = 0.8438
    Date    TT    R. A. (2000) Decl.     Delta      r     Elong.  Phase     V
    2013 09 12    19 30 03.2 +85 07 32   0.1169  1.0099    88.4    85.0    24.4
    ...
    2013 09 27    22 38 03.3 +75 17 36   0.06365 1.0206   104.9    71.6    22.7
    ...
    2013 10 05    23 22 39.0 +53 42 58   0.03776 1.0239   128.2    50.1    20.9
    ...
    2013 10 11    23 44 20.4 +13 36 45   0.02871 1.0252   159.1    20.4    19.5
    2013 10 12    23 47 22.3 +05 32 47   0.02903 1.0253   159.7    19.7    19.5
    2013 10 13    23 50 16.5 -02 11 20   0.02992 1.0254   157.2    22.1    19.6
    ...
    2013 10 19    00 05 25.1 -34 15 52   0.04388 1.0254   131.0    47.1    21.1
    ...
    2013 10 27    00 21 10.6 -50 35 56   0.07178 1.0238   112.7    63.5    22.7
    ...
    2013 11 11    00 44 15.6 -59 13 11   0.1269  1.0161    98.3    74.6    24.3
    
    A. U. Tomatic                (C) Copyright 2013 MPC           M.P.E.C. 2013-T91
    

    Read MPEC 2013-T90 Read MPEC 2013-T92


    MPEC number:

    Enter an MPEC number in one of the following forms:

    • 1997-B01 (the full form)
    • J97B01 (the packed version of the full form)
    • B01 (the abbreviated form)